Weather History for Ottumwa, IA

Change the Weather History Date:

Wednesday, February 13, 2013

  Actual Average Record
Temperature  
Mean Temperature 38 °F 26 °F  
Max Temperature 50 °F 35 °F 65 °F (1938)
Min Temperature 25 °F 17 °F -7 °F (1960)
Degree Days  
Heating Degree Days 27 39  
Month to date heating degree days 456 524  
Since 1 July heating degree days 3948 4346  
Cooling Degree Days 0 0  
Month to date cooling degree days 0 0  
Year to date cooling degree days 0 0  
Moisture  
Dew Point 26 °F    
Average Humidity 65    
Maximum Humidity 88    
Minimum Humidity 42    
Precipitation  
Precipitation 0.00 in 0.04 in 1.24 in (1978)
Month to date precipitation 0.77 0.46  
Year to date precipitation 2.29 1.36  
Sea Level Pressure  
Sea Level Pressure 29.80 in    
Wind  
Wind Speed 8 mph (WSW)    
Max Wind Speed 14 mph    
Max Gust Speed 16 mph    
Visibility 10 miles    
Events      
T = Trace of Precipitation, MM = Missing Value Source: NWS Daily Summary

Daily Weather History Graph

Daily Weather History Graph

Search for Another Location

Airport:

Trip Planner

Search our weather history database for the weather conditions in past years. The results will help you decide how hot, cold, wet, or windy it might be!

Date:

Astronomy

Feb. 13, 2013 Rise Set
Actual Time 7:06 AM CST 5:41 PM CST
Civil Twilight 6:38 AM CST 6:10 PM CST
Nautical Twilight 6:05 AM CST 6:42 PM CST
Astronomical Twilight 5:34 AM CST 7:14 PM CST
Moon 8:33 AM CST (2/13) 9:48 PM CST (2/13)
Length of Visible Light 11h 32m
Length of Day
10h 35m
Waxing Crescent, 14% of the Moon is Illuminated
Feb 13
Waxing Crescent
Feb 17
First Quarter
Feb 25
Full
Mar 4
Last Quarter
Mar 11
New

Hourly Weather History & Observations

Time (CST) Temp. Windchill Dew Point Humidity Pressure Visibility Wind Dir Wind Speed Gust Speed Precip Events Conditions
12:53 AM 32.0 °F 24.2 °F 24.1 °F 73% 29.88 in 10.0 mi SSW 9.2 mph - N/A   Clear
1:53 AM 30.9 °F 22.8 °F 24.1 °F 76% 29.87 in 10.0 mi SW 9.2 mph - N/A   Clear
2:53 AM 30.0 °F 21.7 °F 24.1 °F 79% 29.85 in 10.0 mi WSW 9.2 mph - N/A   Clear
3:53 AM 28.9 °F 21.1 °F 23.0 °F 78% 29.85 in 10.0 mi West 8.1 mph - N/A   Clear
4:53 AM 27.0 °F 20.5 °F 21.9 °F 81% 29.83 in 10.0 mi West 5.8 mph - N/A   Clear
5:53 AM 26.1 °F 19.4 °F 21.9 °F 84% 29.83 in 10.0 mi West 5.8 mph - N/A   Clear
6:53 AM 25.0 °F 17.1 °F 21.9 °F 88% 29.83 in 10.0 mi West 6.9 mph - N/A   Clear
7:53 AM 27.0 °F 21.6 °F 23.0 °F 85% 29.83 in 10.0 mi West 4.6 mph - N/A   Clear
8:53 AM 30.0 °F 22.4 °F 24.1 °F 79% 29.84 in 10.0 mi West 8.1 mph - N/A   Clear
9:53 AM 33.1 °F 26.9 °F 25.0 °F 72% 29.84 in 10.0 mi West 6.9 mph - N/A   Clear
10:53 AM 37.0 °F 30.4 °F 27.0 °F 67% 29.84 in 10.0 mi WNW 9.2 mph - N/A   Clear
11:53 AM 39.9 °F 35.1 °F 28.0 °F 63% 29.83 in 10.0 mi West 6.9 mph - N/A   Clear
12:53 PM 43.0 °F 38.2 °F 28.0 °F 56% 29.80 in 10.0 mi West 8.1 mph - N/A   Clear
1:53 PM 46.0 °F 40.6 °F 27.0 °F 47% 29.78 in 10.0 mi West 11.5 mph - N/A   Clear
2:53 PM 48.0 °F - 28.0 °F 46% 29.77 in 10.0 mi WSW 11.5 mph 16.1 mph N/A   Clear
3:53 PM 48.9 °F - 27.0 °F 43% 29.76 in 10.0 mi West 12.7 mph - N/A   Clear
4:53 PM 48.0 °F - 27.0 °F 44% 29.76 in 10.0 mi WSW 8.1 mph - N/A   Clear
5:53 PM 43.0 °F 38.8 °F 27.0 °F 53% 29.76 in 10.0 mi SW 6.9 mph - N/A   Clear
6:53 PM 37.0 °F 31.6 °F 26.1 °F 65% 29.76 in 10.0 mi SSW 6.9 mph - N/A   Clear
7:53 PM 37.0 °F 31.6 °F 26.1 °F 65% 29.76 in 10.0 mi SSW 6.9 mph - N/A   Mostly Cloudy
8:53 PM 37.0 °F 31.0 °F 28.0 °F 70% 29.74 in 10.0 mi South 8.1 mph - N/A   Mostly Cloudy
9:53 PM 37.9 °F 31.5 °F 27.0 °F 65% 29.72 in 10.0 mi South 9.2 mph - N/A   Overcast
10:53 PM 39.0 °F 32.8 °F 28.0 °F 65% 29.72 in 10.0 mi SSW 9.2 mph - N/A   Overcast
11:53 PM 39.9 °F 32.9 °F 27.0 °F 60% 29.72 in 10.0 mi WSW 11.5 mph - N/A   Scattered Clouds